This is the latest recevied weather packets stored in our database for station/object VE3VGJ. If no packets are shown the sender has not sent any weather packets the latest 10 day(s).
| Time | Temp. | Humidity | Pressure | Rain* | Wind** | Luminosity | Snow |
|---|---|---|---|---|---|---|---|
| 1777548486 | 6.11° C | 76% | 1010.1 hPa | 0 mm | - | 86 W/m² | - |
| 1777548182 | 6.11° C | 75% | 1010.1 hPa | 0 mm | - | 66 W/m² | - |
| 1777547878 | 6.11° C | 75% | 1010 hPa | 0 mm | - | 51 W/m² | - |
| 1777547574 | 6.11° C | 75% | 1009.8 hPa | 0 mm | - | 45 W/m² | - |
| 1777547272 | 6.11° C | 75% | 1009.6 hPa | 0 mm | - | 41 W/m² | - |
| 1777546969 | 6.11° C | 76% | 1009.7 hPa | 0 mm | - | 35 W/m² | - |
| 1777546666 | 6.11° C | 76% | 1009.5 hPa | 0 mm | - | 28 W/m² | - |
| 1777546362 | 5.56° C | 76% | 1009.3 hPa | 0 mm | - | 22 W/m² | - |
| 1777546060 | 5.56° C | 77% | 1009.5 hPa | 0 mm | - | 20 W/m² | - |
| 1777545756 | 5.56° C | 77% | 1009.4 hPa | 0 mm | - | 16 W/m² | - |
| 1777545453 | 5.56° C | 77% | 1009.3 hPa | 0 mm | - | 13 W/m² | - |
| 1777545150 | 5.56° C | 78% | 1009.1 hPa | 0 mm | - | 10 W/m² | - |
| 1777544847 | 5.56° C | 78% | 1009.2 hPa | 0 mm | - | 7 W/m² | - |
| 1777544543 | 5.56° C | 78% | 1009 hPa | 0 mm | - | 5 W/m² | - |
| 1777544240 | 5.56° C | 78% | 1008.9 hPa | 0 mm | - | 3 W/m² | - |
| 1777543937 | 5.56° C | 78% | 1008.9 hPa | 0 mm | - | 2 W/m² | - |
| 1777543634 | 5.56° C | 78% | 1009 hPa | 0 mm | - | 1 W/m² | - |
| 1777543329 | 5.56° C | 78% | 1008.9 hPa | 0 mm | - | 1 W/m² | - |
| 1777543025 | 5.56° C | 78% | 1008.9 hPa | 0 mm | - | 0 W/m² | - |
| 1777542722 | 6.11° C | 78% | 1008.9 hPa | 0 mm | - | 0 W/m² | - |
| 1777542418 | 6.11° C | 78% | 1009.1 hPa | 0 mm | - | 0 W/m² | - |
| 1777542114 | 6.11° C | 78% | 1009.1 hPa | 0 mm | - | 0 W/m² | - |
| 1777541812 | 6.11° C | 79% | 1009 hPa | 0 mm | - | 0 W/m² | - |
| 1777541509 | 6.11° C | 78% | 1008.9 hPa | 0 mm | - | 0 W/m² | - |
| 1777541205 | 6.11° C | 79% | 1009 hPa | 0 mm | - | 0 W/m² | - |
* Rain latest hour (hover to see other rain measurements)
** Current wind speed in m/s (hover to see current wind gust speed)